Flag for Poland Weather past 2 weeks in Tychy, Poland

Now
30 °F

Light snow. Ice fog.


Feels Like: 20 °F
Forecast: 27 / 34 °F
Wind: 14 mph from Southwest

Location: Katowice Airport

Current Time: Jan 27, 2015 at 12:21:30 PM

Latest Report: Jan 27, 2015 at 12:00 PM


Visibility: 1 mi

Pressure: 29.83 "Hg

Humidity: 100%

Dew point: 30 °F

Location of TychyLocation

Historic Weather in Tychy — Graph

°F

Tychy temperature yesterday

Maximum temperature yesterday: 32 °F (at 1:00 AM)
Minimum temperature yesterday: 23 °F (at 9:00 PM)
Average temperature yesterday: 29 °F

Past Weeks' High & Low Weather Summary

 TemperatureHumidityPressure
High52 °F (Jan 16, 1:30 PM)100% (Jan 17, 7:30 PM)30.24 "Hg (Jan 17, 7:30 PM)
Low23 °F (Jan 26, 9:00 PM)32% (Jan 13, 6:00 PM)29.71 "Hg (Jan 17, 5:00 AM)
Average36 °F87%29.98 "Hg
* Reported Jan 12 11:00 AM — Jan 27 11:00 AM, Tychy, Weather by CustomWeather, © 2014

Note: Actual official high and low records may vary slightly from our data, if they occured in-between our weather recording intervals... More about our weather records

Advertising

Tychy weather history for previous 24 hours

 ConditionsComfort  
Time TempWeatherWind HumidityBarometerVisibility
11:00 AM
Jan 27
30 °FLight snow. Ice fog.14 mph93%29.83 "Hg1 mi
10:30 AM30 °FLight snow. Ice fog.12 mph93%29.83 "Hg1 mi
10:00 AM30 °FLight snow. Ice fog.12 mph93%29.83 "Hg1 mi
9:30 AM28 °FLight snow. Ice fog.12 mph100%29.83 "Hg1 mi
9:00 AM28 °FLight snow. Ice fog.12 mph93%29.83 "Hg1 mi
8:30 AM28 °FLight snow. Ice fog.10 mph93%29.83 "Hg1 mi
8:00 AM28 °FLight snow. Ice fog.9 mph93%29.83 "Hg1 mi
7:30 AM28 °FLight snow. Ice fog.7 mph86%29.86 "Hg2 mi
7:00 AM27 °FLight snow. Ice fog.7 mph93%29.86 "Hg1 mi
6:30 AM28 °FPassing clouds.7 mph80%29.86 "HgN/A
6:00 AM28 °FClear.7 mph80%29.86 "Hg6 mi
5:30 AM27 °FClear.7 mph86%29.86 "Hg5 mi
5:00 AM27 °FClear.8 mph86%29.86 "Hg5 mi
4:30 AM27 °FClear.6 mph80%29.89 "Hg4 mi
4:00 AM27 °FClear.5 mph80%29.89 "Hg4 mi
3:30 AM27 °FClear.5 mph80%29.89 "Hg4 mi
3:00 AM27 °FClear.6 mph80%29.92 "Hg4 mi
2:30 AM27 °FClear.5 mph86%29.92 "Hg4 mi
2:00 AM27 °FClear.5 mph86%29.95 "Hg4 mi
1:30 AM27 °FClear.3 mph86%29.95 "Hg4 mi
1:00 AM27 °FIce fog.5 mph86%29.98 "Hg3 mi
12:30 AM25 °FIce fog.3 mph93%29.98 "Hg3 mi
12:00 AM27 °FIce fog.5 mph86%30.01 "Hg3 mi
11:30 PM
Jan 26
27 °FIce fog.5 mph86%30.01 "Hg3 mi
11:00 PM27 °FIce fog.6 mph86%30.04 "Hg3 mi
10:30 PM25 °FIce fog.6 mph93%30.04 "Hg2 mi
10:00 PM23 °FIce fog.6 mph100%30.07 "Hg2 mi
9:30 PM23 °FIce fog.5 mph93%30.07 "Hg1 mi
9:00 PM23 °FIce fog.5 mph100%30.07 "Hg1 mi
8:30 PM25 °FIce fog.5 mph93%30.09 "Hg1 mi
8:00 PM25 °FIce fog.5 mph93%30.09 "Hg1 mi
7:30 PM25 °FIce fog.3 mph93%30.09 "Hg2 mi
7:00 PM27 °FIce fog.3 mph93%30.12 "Hg2 mi
6:30 PM28 °FIce fog.3 mph86%30.12 "Hg2 mi
6:00 PM28 °FIce fog.3 mph86%30.12 "Hg2 mi
5:30 PM30 °FIce fog.3 mph86%30.15 "Hg2 mi
5:00 PM30 °FIce fog.3 mph86%30.15 "Hg3 mi
4:30 PM30 °FPassing clouds.2 mph86%30.15 "Hg4 mi
4:00 PM30 °FPartly sunny.5 mph86%30.15 "Hg5 mi
3:30 PM32 °FPartly sunny.5 mph80%30.15 "HgN/A
3:00 PM30 °FPartly sunny.5 mph86%30.18 "HgN/A
2:30 PM30 °FPartly sunny.6 mph86%30.18 "HgN/A
2:00 PM30 °FBroken clouds.8 mph86%30.18 "HgN/A
1:30 PM32 °FBroken clouds.8 mph87%30.18 "HgN/A
1:00 PM32 °FBroken clouds.6 mph87%30.21 "Hg5 mi
12:30 PM32 °FBroken clouds.5 mph87%30.21 "Hg5 mi
12:00 PM32 °FBroken clouds.5 mph87%30.21 "Hg5 mi
Weather by CustomWeather, © 2014

See weather overviewHow to use our weather pages